| time (UTC) | temp F | wind direction | speed MPH | gust MPH | rain 1hr in | rain 24hr in | rain mn in | humidity % | barometer mb |
| 20260904030002 | 57 | 179 | 0.0 | 0.0 | 0.00 | 0.12 | 0.00 | 91 | 1019.2 |
| 20260904024502 | 57 | 179 | 0.0 | 0.0 | 0.00 | 0.12 | 0.00 | 91 | 1019.2 |
| 20260904023001 | 57 | 179 | 0.0 | 0.0 | 0.00 | 0.12 | 0.00 | 92 | 1019.2 |
| 20260904021503 | 57 | 179 | 0.0 | 0.0 | 0.00 | 0.12 | 0.00 | 92 | 1019.3 |
| 20260904020611 | 57 | 0.0 | 0.0 | 0.00 | 0.12 | 0.00 | 91 | 1020.5 | |
| 20260904020123 | 57 | 179 | 0.0 | 0.0 | 0.00 | 0.12 | 0.00 | 91 | 1019.5 |
| 20260904014646 | 57 | 179 | 0.0 | 0.0 | 0.00 | 0.12 | 0.00 | 91 | 1019.4 |
| 20260904013108 | 57 | 179 | 0.0 | 0.0 | 0.00 | 0.12 | 0.00 | 91 | 1019.3 |
| 20260904011605 | 57 | 179 | 0.0 | 0.0 | 0.00 | 0.12 | 0.00 | 91 | 1019.3 |
| 20260904010543 | 58 | 0.0 | 0.0 | 0.00 | 0.12 | 0.00 | 91 | 1020.7 | |
| 20260904010058 | 58 | 179 | 0.0 | 0.0 | 0.00 | 0.12 | 0.00 | 91 | 1019.4 |
| 20260904004553 | 58 | 179 | 0.0 | 0.0 | 0.00 | 0.12 | 0.00 | 91 | 1019.5 |
| 20260904003059 | 58 | 179 | 0.0 | 1.0 | 0.00 | 0.12 | 0.00 | 91 | 1019.6 |
| 20260904001549 | 59 | 179 | 0.0 | 0.0 | 0.00 | 0.12 | 0.00 | 91 | 1019.6 |
| 20260904000513 | 60 | 0.0 | 0.0 | 0.00 | 0.12 | 0.00 | 92 | 1021.2 | |
| 20260904000046 | 59 | 162 | 0.0 | 0.0 | 0.00 | 0.12 | 0.00 | 92 | 1019.8 |
| 20260903234545 | 59 | 28 | 0.0 | 0.0 | 0.00 | 0.12 | 0.00 | 91 | 1019.8 |
| 20260903233044 | 60 | 28 | 0.0 | 0.0 | 0.00 | 0.12 | 0.00 | 92 | 1020.1 |
| 20260903231543 | 60 | 28 | 0.0 | 0.0 | 0.00 | 0.12 | 0.00 | 92 | 1020.1 |
| 20260903230544 | 60 | 0.0 | 0.0 | 0.00 | 0.12 | 0.00 | 92 | 1021.6 | |
| 20260903230057 | 60 | 28 | 0.0 | 0.0 | 0.00 | 0.12 | 0.00 | 92 | 1020.2 |
| 20260903224541 | 60 | 28 | 0.0 | 0.0 | 0.00 | 0.12 | 0.00 | 92 | 1020.1 |
| 20260903223040 | 60 | 28 | 0.0 | 0.0 | 0.00 | 0.12 | 0.00 | 91 | 1019.9 |
| 20260903221540 | 60 | 28 | 0.0 | 0.0 | 0.00 | 0.12 | 0.00 | 91 | 1020.0 |
| 20260903220515 | 60 | 0.0 | 0.0 | 0.00 | 0.12 | 0.12 | 91 | 1021.3 | |
| 20260903220040 | 60 | 28 | 0.0 | 0.0 | 0.00 | 0.12 | 0.00 | 91 | 1020.0 |
| 20260903214543 | 60 | 28 | 0.0 | 0.0 | 0.00 | 0.12 | 0.12 | 91 | 1019.8 |
| 20260903213039 | 60 | 28 | 0.0 | 0.0 | 0.00 | 0.12 | 0.12 | 91 | 1020.0 |
| 20260903211535 | 60 | 28 | 0.0 | 0.0 | 0.00 | 0.12 | 0.12 | 91 | 1020.4 |
| 20260903210627 | 61 | 0.0 | 0.0 | 0.00 | 0.12 | 0.12 | 91 | 1021.4 | |
| 20260903210035 | 60 | 28 | 0.0 | 0.0 | 0.00 | 0.12 | 0.12 | 91 | 1020.2 |
| 20260903204535 | 60 | 28 | 0.0 | 0.0 | 0.00 | 0.12 | 0.12 | 91 | 1020.3 |
| 20260903203034 | 60 | 28 | 0.0 | 0.0 | 0.00 | 0.12 | 0.12 | 91 | 1020.1 |
| 20260903201535 | 61 | 28 | 0.0 | 0.0 | 0.00 | 0.12 | 0.12 | 91 | 1020.1 |
| 20260903200556 | 61 | 0.0 | 0.0 | 0.00 | 0.12 | 0.12 | 91 | 1021.2 | |
| 20260903200038 | 61 | 28 | 0.0 | 0.0 | 0.00 | 0.12 | 0.12 | 91 | 1020.1 |
| 20260903194534 | 61 | 28 | 0.0 | 0.0 | 0.00 | 0.12 | 0.12 | 91 | 1020.0 |
| 20260903193034 | 61 | 28 | 0.0 | 0.0 | 0.00 | 0.12 | 0.12 | 90 | 1020.1 |
| 20260903191531 | 61 | 28 | 0.0 | 0.0 | 0.00 | 0.12 | 0.12 | 90 | 1020.2 |
| 20260903190537 | 61 | 0.0 | 0.0 | 0.00 | 0.12 | 0.12 | 90 | 1020.9 | |
| 20260903190030 | 61 | 28 | 0.0 | 0.0 | 0.00 | 0.12 | 0.12 | 90 | 1020.3 |
| 20260903184530 | 61 | 28 | 0.0 | 1.0 | 0.00 | 0.12 | 0.12 | 90 | 1020.3 |
| 20260903183030 | 61 | 28 | 0.0 | 0.0 | 0.00 | 0.12 | 0.12 | 90 | 1020.1 |
| 20260903181529 | 61 | 28 | 0.0 | 0.0 | 0.00 | 0.12 | 0.12 | 90 | 1020.0 |
| 20260903180508 | 62 | 0.0 | 0.0 | 0.00 | 0.12 | 0.12 | 90 | 1020.4 | |
| 20260903180048 | 61 | 28 | 0.0 | 0.0 | 0.00 | 0.12 | 0.12 | 90 | 1019.9 |
| 20260903174528 | 61 | 28 | 0.0 | 0.0 | 0.02 | 0.12 | 0.12 | 89 | 1019.7 |
| 20260903173032 | 61 | 28 | 0.0 | 1.0 | 0.02 | 0.12 | 0.12 | 90 | 1019.6 |
| 20260903171527 | 62 | 28 | 0.0 | 2.0 | 0.02 | 0.12 | 0.12 | 89 | 1019.7 |
| 20260903170538 | 62 | 0.0 | 0.0 | 0.02 | 0.12 | 0.12 | 88 | 1020.7 | |
| 20260903170034 | 62 | 28 | 0.0 | 1.0 | 0.02 | 0.12 | 0.12 | 89 | 1020.0 |
| 20260903164530 | 62 | 28 | 0.0 | 2.0 | 0.00 | 0.10 | 0.10 | 88 | 1020.4 |
| 20260903163024 | 62 | 28 | 0.0 | 1.0 | 0.00 | 0.10 | 0.10 | 88 | 1020.4 |
| 20260903161528 | 62 | 28 | 0.0 | 2.0 | 0.02 | 0.10 | 0.10 | 87 | 1020.3 |
| 20260903160510 | 63 | 0.0 | 1.0 | 0.06 | 0.10 | 0.10 | 87 | 1021.2 | |
| 20260903160025 | 62 | 34 | 0.0 | 1.0 | 0.05 | 0.10 | 0.10 | 87 | 1020.7 |
| 20260903154524 | 62 | 154 | 0.0 | 1.0 | 0.06 | 0.10 | 0.10 | 87 | 1020.7 |
| 20260903153021 | 63 | 154 | 0.0 | 3.0 | 0.07 | 0.10 | 0.10 | 86 | 1020.0 |
| 20260903151520 | 63 | 218 | 0.0 | 2.0 | 0.06 | 0.07 | 0.07 | 86 | 1020.9 |
| 20260903150441 | 64 | 0.0 | 1.0 | 0.03 | 0.05 | 0.05 | 85 | 1021.6 | |
| 20260903150020 | 64 | 218 | 0.0 | 3.0 | 0.03 | 0.05 | 0.05 | 85 | 1020.8 |
| 20260903144522 | 64 | 218 | 0.0 | 3.0 | 0.02 | 0.04 | 0.04 | 84 | 1020.5 |
| 20260903143021 | 65 | 210 | 0.0 | 2.0 | 0.02 | 0.03 | 0.03 | 82 | 1020.4 |
| 20260903141523 | 65 | 210 | 1.0 | 3.0 | 0.02 | 0.02 | 0.02 | 81 | 1020.5 |
| 20260903140510 | 67 | 0.0 | 1.0 | 0.02 | 0.02 | 0.02 | 79 | 1021.6 | |
| 20260903140017 | 66 | 210 | 0.0 | 2.0 | 0.02 | 0.02 | 0.02 | 80 | 1020.4 |
| 20260903134517 | 67 | 210 | 0.0 | 2.0 | 0.02 | 0.02 | 0.02 | 77 | 1020.4 |
| 20260903133017 | 69 | 238 | 1.0 | 5.0 | 0.00 | 0.00 | 0.00 | 72 | 1020.9 |
| 20260903131515 | 70 | 257 | 2.0 | 6.0 | 0.00 | 0.00 | 0.00 | 66 | 1020.3 |
| 20260903130609 | 71 | 248 | 1.0 | 2.0 | 0.00 | 0.00 | 0.00 | 65 | 1021.7 |
| 20260903130014 | 71 | 204 | 3.0 | 10.0 | 0.00 | 0.00 | 0.00 | 64 | 1020.3 |
| 20260903124513 | 70 | 269 | 1.0 | 12.0 | 0.00 | 0.00 | 0.00 | 64 | 1020.3 |
| 20260903123023 | 70 | 223 | 4.0 | 10.0 | 0.00 | 0.00 | 0.00 | 64 | 1020.3 |
| 20260903121514 | 71 | 265 | 1.0 | 11.0 | 0.00 | 0.00 | 0.00 | 65 | 1020.4 |
| 20260903120536 | 72 | 225 | 4.0 | 8.0 | 0.00 | 0.00 | 0.00 | 62 | 1021.9 |
| 20260903120012 | 72 | 195 | 2.0 | 10.0 | 0.00 | 0.00 | 0.00 | 63 | 1020.6 |
| 20260903114511 | 72 | 209 | 6.0 | 15.0 | 0.00 | 0.00 | 0.00 | 60 | 1020.4 |
| 20260903113019 | 72 | 217 | 1.0 | 8.0 | 0.00 | 0.00 | 0.00 | 62 | 1020.5 |
| 20260903111509 | 72 | 198 | 2.0 | 9.0 | 0.00 | 0.00 | 0.00 | 62 | 1020.7 |
| 20260903110424 | 73 | 225 | 3.0 | 6.0 | 0.00 | 0.00 | 0.00 | 59 | 1022.2 |
| 20260903110008 | 72 | 306 | 1.0 | 12.0 | 0.00 | 0.00 | 0.00 | 59 | 1020.7 |
| 20260903104506 | 72 | 213 | 5.0 | 11.0 | 0.00 | 0.00 | 0.00 | 59 | 1020.8 |
| 20260903103005 | 72 | 254 | 3.0 | 11.0 | 0.00 | 0.00 | 0.00 | 61 | 1021.2 |
| 20260903101502 | 71 | 130 | 4.0 | 12.0 | 0.00 | 0.00 | 0.00 | 59 | 1021.1 |
| 20260903100514 | 71 | 203 | 1.0 | 2.0 | 0.00 | 0.00 | 0.00 | 60 | 1022.6 |
| 20260903100002 | 70 | 215 | 5.0 | 10.0 | 0.00 | 0.00 | 0.00 | 59 | 1021.2 |
| 20260903094602 | 71 | 278 | 2.0 | 11.0 | 0.00 | 0.00 | 0.00 | 64 | 1021.2 |
| 20260903093101 | 70 | 199 | 2.0 | 11.0 | 0.00 | 0.00 | 0.00 | 63 | 1021.5 |
| 20260903091557 | 70 | 277 | 1.0 | 6.0 | 0.00 | 0.00 | 0.00 | 63 | 1021.4 |
| 20260903090437 | 69 | 225 | 4.0 | 9.0 | 0.00 | 0.00 | 0.00 | 66 | 1022.8 |
| 20260903090052 | 69 | 209 | 1.0 | 9.0 | 0.00 | 0.00 | 0.00 | 65 | 1021.5 |
| 20260903084550 | 67 | 216 | 1.0 | 8.0 | 0.00 | 0.00 | 0.00 | 65 | 1021.5 |
| 20260903083046 | 67 | 210 | 2.0 | 8.0 | 0.00 | 0.00 | 0.00 | 68 | 1021.2 |
| 20260903081546 | 67 | 215 | 1.0 | 6.0 | 0.00 | 0.00 | 0.00 | 68 | 1021.0 |
| 20260903080528 | 67 | 0.0 | 0.0 | 0.00 | 0.00 | 0.00 | 72 | 1022.8 | |
| 20260903080043 | 67 | 212 | 0.0 | 0.0 | 0.00 | 0.00 | 0.00 | 70 | 1021.3 |
| 20260903074543 | 66 | 215 | 0.0 | 0.0 | 0.00 | 0.00 | 0.00 | 73 | 1021.6 |
| 20260903073035 | 64 | 198 | 0.0 | 0.0 | 0.00 | 0.00 | 0.00 | 80 | 1021.6 |
| 20260903071531 | 62 | 198 | 0.0 | 0.0 | 0.00 | 0.00 | 0.00 | 88 | 1021.6 |
| 20260903070438 | 60 | 0.0 | 0.0 | 0.00 | 0.00 | 0.00 | 92 | 1022.9 | |
| 20260903070032 | 60 | 197 | 0.0 | 0.0 | 0.00 | 0.00 | 0.00 | 91 | 1021.7 |
| 20260903064525 | 57 | 197 | 0.0 | 0.0 | 0.00 | 0.00 | 0.00 | 92 | 1021.8 |
| 20260903063025 | 54 | 197 | 0.0 | 0.0 | 0.00 | 0.00 | 0.00 | 91 | 1022.0 |
| 20260903061523 | 53 | 198 | 0.0 | 0.0 | 0.00 | 0.00 | 0.00 | 89 | 1021.9 |
| 20260903060417 | 53 | 0.0 | 0.0 | 0.00 | 0.00 | 0.00 | 89 | 1022.5 | |
| 20260903060123 | 52 | 215 | 0.0 | 0.0 | 0.00 | 0.00 | 0.00 | 89 | 1021.9 |
| 20260903054531 | 52 | 215 | 0.0 | 0.0 | 0.00 | 0.00 | 0.00 | 88 | 1021.6 |
| 20260903053019 | 52 | 215 | 0.0 | 0.0 | 0.00 | 0.00 | 0.00 | 88 | 1021.5 |
| 20260903051519 | 52 | 215 | 0.0 | 0.0 | 0.00 | 0.00 | 0.00 | 88 | 1021.4 |
| 20260903050429 | 52 | 0.0 | 0.0 | 0.00 | 0.00 | 0.00 | 88 | 1022.3 | |
| 20260903050018 | 52 | 215 | 0.0 | 0.0 | 0.00 | 0.00 | 0.00 | 88 | 1021.3 |
| 20260903044517 | 52 | 215 | 0.0 | 0.0 | 0.00 | 0.01 | 0.00 | 87 | 1021.2 |
| 20260903043017 | 52 | 215 | 0.0 | 0.0 | 0.00 | 0.01 | 0.00 | 87 | 1021.3 |
| 20260903041517 | 52 | 215 | 0.0 | 0.0 | 0.00 | 0.01 | 0.00 | 86 | 1021.2 |
| 20260903040404 | 53 | 0.0 | 0.0 | 0.00 | 0.01 | 0.00 | 86 | 1022.3 | |
| 20260903040013 | 53 | 215 | 0.0 | 0.0 | 0.00 | 0.01 | 0.00 | 86 | 1021.3 |
| 20260903034514 | 53 | 215 | 0.0 | 0.0 | 0.00 | 0.01 | 0.00 | 86 | 1021.1 |
| 20260903033013 | 54 | 215 | 0.0 | 0.0 | 0.00 | 0.01 | 0.00 | 86 | 1021.3 |
| 20260903031515 | 54 | 215 | 0.0 | 0.0 | 0.00 | 0.01 | 0.00 | 86 | 1021.3 |
| 20260903030342 | 55 | 0.0 | 0.0 | 0.00 | 0.01 | 0.00 | 85 | 1022.2 |